QPF
0.04 0.05 0.07 0.12 0.11 0.08 0.08 0.08 0.06 0.06 0.05 0.06 0.07 0.06 0.05 0.06 0.07 0.06 0.04 0.03 0.03 0.03 0.03 0.04 0.05 0.04 0.05 0.05 0.06 0.07 0.05 0.05 0.05 0.04 0.03 0.04 0.06 0.06 0.06 0.06 0.08 0.06 0.05
0.03 0.04 0.06 0.08 0.08 0.06 0.06 0.08 0.11 0.08 0.06 0.05 0.05 0.06 0.06 0.06 0.06 0.05 0.04 0.04 0.03 0.03 0.02 0.03 0.04 0.03 0.03 0.03 0.03 0.03 0.04 0.05 0.04 0.05 0.04 0.03 0.03 0.03 0.05 0.05 0.06 0.06 0.05
0.03 0.04 0.05 0.08 0.06 0.05 0.06 0.07 0.09 0.07 0.07 0.06 0.06 0.07 0.06 0.04 0.05 0.06 0.05 0.05 0.03 0.02 0.02 0.02 0.03 0.02 0.03 0.04 0.03 0.03 0.03 0.03 0.04 0.04 0.03 0.04 0.03 0.03 0.04 0.04 0.04 0.04 0.04
0.03 0.04 0.03 0.07 0.06 0.07 0.07 0.08 0.08 0.05 0.06 0.07 0.07 0.07 0.05 0.04 0.06 0.06 0.05 0.06 0.06 0.04 0.02 0.03 0.05 0.03 0.03 0.04 0.05 0.05 0.04 0.03 0.02 0.03 0.02 0.02 0.03 0.03 0.04 0.04 0.05 0.06 0.04
0.03 0.02 0.02 0.05 0.05 0.05 0.06 0.08 0.09 0.08 0.07 0.07 0.07 0.06 0.04 0.05 0.07 0.07 0.05 0.05 0.05 0.04 0.03 0.03 0.04 0.03 0.03 0.04 0.03 0.03 0.03 0.03 0.03 0.02 0.01 0.02 0.04 0.04 0.04 0.05 0.06 0.07 0.04
0.02 0.01 0.02 0.05 0.06 0.05 0.06 0.07 0.07 0.09 0.10 0.09 0.06 0.05 0.05 0.06 0.06 0.06 0.05 0.04 0.03 0.04 0.04 0.04 0.04 0.04 0.04 0.02 0.02 0.02 0.02 0.03 0.02 0.02 0.02 0.02 0.04 0.05 0.06 0.06 0.06 0.06 0.05
0.03 0.02 0.02 0.04 0.05 0.05 0.04 0.04 0.06 0.09 0.10 0.07 0.06 0.05 0.05 0.06 0.08 0.08 0.06 0.05 0.04 0.04 0.04 0.04 0.04 0.04 0.02 0.01 0.01 0.02 0.02 0.02 0.02 0.02 0.03 0.04 0.07 0.08 0.06 0.06 0.06 0.06 0.06
0.04 0.02 0.01 0.04 0.05 0.06 0.06 0.05 0.06 0.08 0.09 0.07 0.06 0.06 0.05 0.06 0.09 0.10 0.09 0.06 0.04 0.03 0.04 0.04 0.04 0.03 0.01 0.01 0.01 0.04 0.04 0.03 0.02 0.02 0.03 0.07 0.09 0.09 0.05 0.04 0.06 0.07 0.08
0.03 0.04 0.03 0.03 0.05 0.10 0.11 0.09 0.08 0.09 0.08 0.08 0.07 0.06 0.04 0.07 0.11 0.10 0.08 0.05 0.02 0.02 0.04 0.05 0.04 0.02 0.02 0.01 0.02 0.03 0.03 0.03 0.02 0.03 0.02 0.05 0.06 0.06 0.04 0.04 0.05 0.08 0.08
0.03 0.03 0.03 0.03 0.05 0.12 0.13 0.11 0.09 0.08 0.08 0.08 0.07 0.06 0.05 0.10 0.10 0.07 0.04 0.04 0.03 0.03 0.05 0.04 0.02 0.02 0.02 0.02 0.02 0.03 0.02 0.01 0.01 0.01 0.02 0.03 0.06 0.06 0.05 0.05 0.05 0.08 0.08
0.05 0.04 0.03 0.01 0.02 0.04 0.06 0.05 0.06 0.07 0.07 0.05 0.05 0.04 0.08 0.13 0.06 0.04 0.04 0.06 0.05 0.05 0.04 0.03 0.02 0.02 0.02 0.02 0.03 0.03 0.01 0.01 0.01 0.01 0.03 0.05 0.07 0.06 0.07 0.06 0.08 0.11 0.12
0.02 0.03 0.04 0.04 0.03 0.04 0.05 0.06 0.05 0.05 0.03 0.02 0.03 0.05 0.09 0.07 0.03 0.03 0.06 0.06 0.06 0.04 0.02 0.02 0.02 0.01 0.01 0.02 0.02 0.01 0.01 0.00 0.01 0.01 0.03 0.07 0.08 0.10 0.08 0.07 0.09 0.18 0.21
0.02 0.01 0.02 0.04 0.04 0.03 0.04 0.05 0.06 0.08 0.06 0.03 0.02 0.03 0.04 0.04 0.03 0.05 0.05 0.05 0.03 0.02 0.02 0.01 0.01 0.01 0.01 0.01 0.01 0.01 0.01 0.00 0.01 0.02 0.04 0.07 0.10 0.11 0.08 0.08 0.08 0.11 0.14
0.03 0.02 0.01 0.02 0.03 0.03 0.02 0.01 0.03 0.06 0.06 0.04 0.02 0.02 0.03 0.05 0.06 0.05 0.04 0.03 0.01 0.01 0.01 0.02 0.01 0.01 0.01 0.01 0.01 0.00 0.01 0.01 0.01 0.02 0.04 0.08 0.13 0.11 0.10 0.12 0.10 0.09 0.11
0.03 0.03 0.02 0.01 0.01 0.02 0.02 0.02 0.02 0.03 0.03 0.02 0.02 0.01 0.02 0.03 0.04 0.03 0.03 0.02 0.01 0.01 0.01 0.01 0.01 0.01 0.00 0.01 0.01 0.01 0.01 0.01 0.01 0.02 0.04 0.08 0.15 0.18 0.20 0.19 0.13 0.12 0.13
0.02 0.02 0.01 0.01 0.01 0.02 0.02 0.02 0.02 0.03 0.03 0.03 0.03 0.01 0.01 0.02 0.02 0.02 0.03 0.03 0.01 0.01 0.01 0.01 0.01 0.01 0.01 0.01 0.01 0.01 0.01 0.01 0.01 0.02 0.03 0.04 0.05 0.09 0.12 0.14 0.13 0.12 0.12
0.01 0.01 0.01 0.01 0.01 0.01 0.01 0.01 0.02 0.04 0.05 0.04 0.03 0.02 0.01 0.01 0.02 0.02 0.03 0.02 0.02 0.01 0.01 0.01 0.01 0.02 0.02 0.02 0.02 0.02 0.02 0.02 0.02 0.02 0.03 0.04 0.04 0.04 0.04 0.08 0.12 0.12 0.10
0.00 0.00 0.01 0.00 0.00 0.00 0.00 0.00 0.01 0.02 0.04 0.04 0.04 0.03 0.02 0.02 0.02 0.02 0.02 0.02 0.02 0.03 0.03 0.03 0.03 0.03 0.03 0.02 0.02 0.03 0.03 0.03 0.03 0.02 0.02 0.03 0.03 0.02 0.02 0.03 0.05 0.07 0.07
0.00 0.00 0.01 0.01 0.01 0.01 0.01 0.00 0.01 0.02 0.02 0.03 0.02 0.03 0.02 0.02 0.02 0.02 0.03 0.02 0.03 0.04 0.04 0.03 0.02 0.02 0.02 0.02 0.02 0.03 0.04 0.02 0.02 0.01 0.02 0.02 0.01 0.01 0.01 0.01 0.02 0.03 0.03
0.01 0.01 0.01 0.01 0.02 0.01 0.01 0.01 0.01 0.02 0.02 0.02 0.02 0.02 0.01 0.01 0.01 0.02 0.03 0.03 0.02 0.02 0.03 0.03 0.02 0.02 0.02 0.03 0.03 0.02 0.02 0.01 0.02 0.01 0.01 0.01 0.01 0.01 0.01 0.01 0.01 0.01 0.01
0.01 0.01 0.01 0.01 0.01 0.01 0.01 0.01 0.02 0.03 0.03 0.03 0.02 0.02 0.01 0.01 0.01 0.01 0.02 0.03 0.03 0.03 0.04 0.03 0.03 0.02 0.01 0.03 0.04 0.03 0.02 0.02 0.01 0.01 0.01 0.01 0.01 0.01 0.01 0.01 0.01 0.01 0.01
0.01 0.01 0.01 0.01 0.00 0.00 0.01 0.02 0.03 0.04 0.04 0.03 0.02 0.01 0.01 0.01 0.01 0.01 0.01 0.02 0.03 0.03 0.04 0.03 0.03 0.02 0.02 0.02 0.04 0.03 0.02 0.02 0.01 0.01 0.01 0.01 0.01 0.01 0.01 0.01 0.02 0.01 0.01
0.00 0.00 0.01 0.01 0.01 0.01 0.01 0.02 0.03 0.04 0.05 0.06 0.04 0.02 0.02 0.02 0.01 0.01 0.01 0.01 0.02 0.03 0.03 0.03 0.03 0.03 0.03 0.03 0.03 0.04 0.03 0.02 0.02 0.02 0.01 0.01 0.01 0.01 0.01 0.01 0.00 0.00 0.00
0.00 0.01 0.01 0.02 0.01 0.01 0.01 0.02 0.03 0.03 0.05 0.08 0.07 0.04 0.03 0.02 0.02 0.02 0.01 0.01 0.01 0.02 0.02 0.03 0.03 0.03 0.03 0.03 0.03 0.02 0.03 0.03 0.02 0.02 0.01 0.01 0.00 0.01 0.01 0.01 0.01 0.00 0.00
0.01 0.01 0.02 0.02 0.02 0.01 0.01 0.03 0.03 0.03 0.04 0.05 0.05 0.04 0.03 0.03 0.03 0.03 0.03 0.01 0.02 0.02 0.02 0.03 0.02 0.02 0.03 0.03 0.04 0.03 0.03 0.03 0.03 0.02 0.01 0.01 0.00 0.00 0.01 0.01 0.01 0.02 0.03
0.01 0.01 0.01 0.02 0.02 0.01 0.01 0.02 0.02 0.03 0.04 0.04 0.03 0.03 0.04 0.02 0.02 0.03 0.02 0.02 0.02 0.03 0.03 0.05 0.04 0.03 0.04 0.04 0.04 0.03 0.03 0.03 0.03 0.02 0.02 0.01 0.01 0.00 0.00 0.00 0.01 0.01 0.01
MSLP
1013.37 1013.06 1012.87 1012.80 1012.82 1012.87 1012.91 1012.89 1012.79 1012.62 1012.42 1012.24 1012.13 1012.10 1012.18 1012.34 1012.55 1012.76 1012.95 1013.09 1013.17 1013.22 1013.24 1013.27 1013.32 1013.39 1013.48 1013.55 1013.60 1013.61 1013.58 1013.53 1013.48 1013.45 1013.46 1013.51 1013.60 1013.69 1013.78 1013.82 1013.81 1013.74 1013.64
1013.51 1013.23 1013.05 1013.00 1013.02 1013.07 1013.11 1013.08 1012.97 1012.80 1012.60 1012.42 1012.31 1012.30 1012.39 1012.56 1012.77 1012.99 1013.18 1013.32 1013.41 1013.47 1013.51 1013.56 1013.64 1013.73 1013.82 1013.89 1013.93 1013.92 1013.87 1013.79 1013.72 1013.68 1013.69 1013.76 1013.86 1013.98 1014.09 1014.16 1014.17 1014.12 1014.04
1013.61 1013.36 1013.21 1013.17 1013.20 1013.26 1013.29 1013.26 1013.16 1012.99 1012.80 1012.63 1012.53 1012.53 1012.61 1012.78 1012.98 1013.19 1013.37 1013.51 1013.60 1013.67 1013.74 1013.83 1013.93 1014.05 1014.16 1014.24 1014.27 1014.24 1014.17 1014.08 1013.99 1013.95 1013.95 1014.02 1014.14 1014.27 1014.40 1014.49 1014.52 1014.50 1014.45
1013.65 1013.44 1013.32 1013.30 1013.34 1013.41 1013.45 1013.43 1013.35 1013.20 1013.03 1012.88 1012.79 1012.78 1012.85 1012.99 1013.17 1013.36 1013.52 1013.65 1013.75 1013.84 1013.94 1014.06 1014.21 1014.35 1014.49 1014.58 1014.61 1014.59 1014.51 1014.41 1014.31 1014.26 1014.27 1014.34 1014.46 1014.60 1014.74 1014.84 1014.89 1014.89 1014.86
1013.62 1013.45 1013.36 1013.37 1013.43 1013.52 1013.58 1013.59 1013.53 1013.42 1013.27 1013.14 1013.06 1013.04 1013.09 1013.21 1013.35 1013.51 1013.65 1013.77 1013.88 1014.00 1014.14 1014.30 1014.48 1014.66 1014.82 1014.93 1014.97 1014.95 1014.87 1014.77 1014.69 1014.64 1014.66 1014.73 1014.85 1014.99 1015.12 1015.22 1015.28 1015.30 1015.29
1013.54 1013.42 1013.36 1013.39 1013.48 1013.59 1013.68 1013.73 1013.71 1013.63 1013.51 1013.40 1013.33 1013.30 1013.34 1013.42 1013.54 1013.66 1013.79 1013.91 1014.04 1014.19 1014.36 1014.56 1014.78 1014.99 1015.16 1015.28 1015.33 1015.31 1015.25 1015.17 1015.10 1015.07 1015.09 1015.17 1015.29 1015.42 1015.54 1015.64 1015.70 1015.73 1015.74
1013.48 1013.38 1013.35 1013.41 1013.52 1013.66 1013.78 1013.86 1013.87 1013.83 1013.75 1013.66 1013.59 1013.57 1013.59 1013.65 1013.74 1013.86 1013.98 1014.12 1014.27 1014.45 1014.65 1014.88 1015.12 1015.34 1015.52 1015.64 1015.69 1015.68 1015.63 1015.56 1015.51 1015.51 1015.56 1015.64 1015.76 1015.89 1016.00 1016.08 1016.14 1016.18 1016.20
1013.48 1013.39 1013.39 1013.46 1013.59 1013.75 1013.89 1014.00 1014.05 1014.03 1013.98 1013.91 1013.86 1013.83 1013.85 1013.90 1013.99 1014.11 1014.25 1014.41 1014.59 1014.80 1015.03 1015.27 1015.51 1015.72 1015.89 1016.00 1016.04 1016.02 1015.98 1015.94 1015.92 1015.94 1016.01 1016.12 1016.25 1016.37 1016.48 1016.55 1016.60 1016.64 1016.68
1013.57 1013.50 1013.50 1013.58 1013.72 1013.89 1014.05 1014.17 1014.24 1014.25 1014.22 1014.17 1014.13 1014.11 1014.13 1014.20 1014.30 1014.44 1014.60 1014.79 1015.00 1015.23 1015.48 1015.72 1015.95 1016.14 1016.28 1016.35 1016.38 1016.35 1016.32 1016.29 1016.30 1016.35 1016.45 1016.59 1016.73 1016.86 1016.97 1017.04 1017.09 1017.13 1017.18
1013.76 1013.69 1013.70 1013.79 1013.93 1014.10 1014.27 1014.40 1014.48 1014.50 1014.48 1014.44 1014.41 1014.41 1014.45 1014.53 1014.66 1014.83 1015.03 1015.26 1015.50 1015.74 1015.99 1016.22 1016.43 1016.58 1016.68 1016.72 1016.72 1016.69 1016.65 1016.64 1016.67 1016.76 1016.89 1017.04 1017.21 1017.36 1017.47 1017.56 1017.61 1017.66 1017.71
1014.02 1013.96 1013.97 1014.07 1014.21 1014.39 1014.55 1014.68 1014.76 1014.78 1014.77 1014.73 1014.71 1014.73 1014.79 1014.90 1015.07 1015.28 1015.52 1015.77 1016.03 1016.29 1016.54 1016.75 1016.92 1017.05 1017.11 1017.12 1017.10 1017.06 1017.03 1017.04 1017.09 1017.20 1017.35 1017.53 1017.71 1017.88 1018.01 1018.11 1018.18 1018.24 1018.30
1014.28 1014.24 1014.28 1014.38 1014.54 1014.71 1014.88 1015.00 1015.07 1015.09 1015.07 1015.04 1015.03 1015.06 1015.15 1015.29 1015.49 1015.74 1016.01 1016.30 1016.58 1016.84 1017.08 1017.28 1017.43 1017.53 1017.58 1017.58 1017.56 1017.53 1017.51 1017.53 1017.60 1017.72 1017.89 1018.08 1018.28 1018.46 1018.61 1018.72 1018.81 1018.88 1018.95
1014.49 1014.48 1014.55 1014.68 1014.85 1015.04 1015.21 1015.33 1015.39 1015.40 1015.38 1015.35 1015.34 1015.38 1015.49 1015.67 1015.91 1016.19 1016.49 1016.80 1017.10 1017.37 1017.60 1017.80 1017.95 1018.05 1018.10 1018.13 1018.13 1018.12 1018.14 1018.18 1018.26 1018.39 1018.55 1018.74 1018.94 1019.12 1019.28 1019.40 1019.50 1019.59 1019.66
1014.58 1014.62 1014.73 1014.90 1015.11 1015.32 1015.50 1015.63 1015.69 1015.69 1015.66 1015.62 1015.62 1015.68 1015.81 1016.01 1016.28 1016.59 1016.93 1017.26 1017.57 1017.85 1018.10 1018.30 1018.47 1018.60 1018.70 1018.77 1018.83 1018.87 1018.93 1019.00 1019.09 1019.22 1019.37 1019.53 1019.71 1019.87 1020.03 1020.15 1020.26 1020.35 1020.43
1014.55 1014.64 1014.81 1015.03 1015.28 1015.52 1015.72 1015.86 1015.92 1015.92 1015.88 1015.85 1015.85 1015.92 1016.07 1016.30 1016.60 1016.95 1017.31 1017.67 1018.00 1018.29 1018.56 1018.79 1018.99 1019.18 1019.35 1019.50 1019.64 1019.76 1019.88 1019.98 1020.09 1020.20 1020.32 1020.45 1020.58 1020.71 1020.84 1020.96 1021.06 1021.14 1021.22
1014.40 1014.55 1014.77 1015.04 1015.33 1015.61 1015.83 1015.99 1016.06 1016.06 1016.02 1015.99 1016.00 1016.09 1016.26 1016.53 1016.86 1017.25 1017.64 1018.03 1018.38 1018.70 1018.99 1019.26 1019.52 1019.78 1020.03 1020.29 1020.52 1020.74 1020.92 1021.07 1021.19 1021.29 1021.37 1021.45 1021.52 1021.61 1021.69 1021.78 1021.87 1021.94 1022.01
1014.20 1014.39 1014.65 1014.96 1015.29 1015.60 1015.85 1016.02 1016.10 1016.11 1016.07 1016.05 1016.07 1016.18 1016.38 1016.69 1017.07 1017.49 1017.93 1018.35 1018.74 1019.09 1019.41 1019.72 1020.03 1020.36 1020.71 1021.06 1021.40 1021.71 1021.97 1022.17 1022.31 1022.40 1022.44 1022.47 1022.49 1022.51 1022.55 1022.61 1022.67 1022.72 1022.77
1014.00 1014.22 1014.50 1014.83 1015.18 1015.51 1015.78 1015.96 1016.05 1016.07 1016.04 1016.03 1016.07 1016.20 1016.44 1016.79 1017.22 1017.70 1018.19 1018.66 1019.08 1019.46 1019.80 1020.15 1020.50 1020.89 1021.30 1021.74 1022.17 1022.57 1022.91 1023.16 1023.34 1023.43 1023.45 1023.44 1023.41 1023.39 1023.39 1023.41 1023.44 1023.47 1023.50
1013.85 1014.07 1014.36 1014.69 1015.04 1015.37 1015.65 1015.84 1015.94 1015.96 1015.95 1015.94 1016.00 1016.17 1016.45 1016.85 1017.34 1017.88 1018.43 1018.94 1019.40 1019.81 1020.17 1020.53 1020.90 1021.31 1021.77 1022.26 1022.76 1023.23 1023.64 1023.96 1024.18 1024.29 1024.33 1024.31 1024.26 1024.21 1024.18 1024.18 1024.19 1024.20 1024.21
1013.76 1013.98 1014.24 1014.56 1014.90 1015.22 1015.50 1015.69 1015.79 1015.83 1015.82 1015.83 1015.92 1016.11 1016.43 1016.89 1017.44 1018.04 1018.64 1019.20 1019.70 1020.12 1020.49 1020.84 1021.20 1021.60 1022.06 1022.57 1023.11 1023.63 1024.10 1024.49 1024.77 1024.94 1025.02 1025.03 1025.00 1024.96 1024.92 1024.91 1024.91 1024.91 1024.90
1013.72 1013.92 1014.16 1014.45 1014.77 1015.08 1015.34 1015.54 1015.65 1015.69 1015.70 1015.72 1015.82 1016.04 1016.40 1016.90 1017.50 1018.16 1018.82 1019.43 1019.95 1020.38 1020.74 1021.06 1021.39 1021.75 1022.18 1022.67 1023.21 1023.76 1024.28 1024.73 1025.10 1025.35 1025.50 1025.58 1025.61 1025.61 1025.61 1025.61 1025.61 1025.61 1025.60
1013.67 1013.86 1014.09 1014.35 1014.64 1014.94 1015.20 1015.40 1015.52 1015.57 1015.59 1015.63 1015.74 1015.98 1016.36 1016.89 1017.53 1018.24 1018.94 1019.59 1020.14 1020.58 1020.92 1021.20 1021.48 1021.78 1022.15 1022.59 1023.11 1023.66 1024.22 1024.73 1025.18 1025.53 1025.79 1025.97 1026.09 1026.16 1026.22 1026.26 1026.29 1026.30 1026.29
1013.58 1013.77 1013.99 1014.24 1014.52 1014.81 1015.08 1015.28 1015.42 1015.49 1015.52 1015.56 1015.68 1015.92 1016.31 1016.85 1017.51 1018.25 1018.99 1019.66 1020.24 1020.69 1021.02 1021.27 1021.49 1021.72 1022.02 1022.40 1022.87 1023.41 1023.99 1024.55 1025.08 1025.53 1025.91 1026.20 1026.43 1026.60 1026.73 1026.83 1026.90 1026.93 1026.93
1013.39 1013.62 1013.84 1014.09 1014.38 1014.68 1014.96 1015.19 1015.35 1015.44 1015.48 1015.53 1015.64 1015.87 1016.24 1016.78 1017.44 1018.18 1018.94 1019.65 1020.25 1020.71 1021.05 1021.28 1021.46 1021.64 1021.87 1022.19 1022.60 1023.11 1023.68 1024.27 1024.86 1025.40 1025.88 1026.29 1026.62 1026.89 1027.11 1027.28 1027.39 1027.47 1027.49
1013.13 1013.39 1013.64 1013.92 1014.22 1014.54 1014.85 1015.11 1015.29 1015.40 1015.46 1015.51 1015.61 1015.81 1016.16 1016.66 1017.30 1018.04 1018.81 1019.54 1020.17 1020.67 1021.03 1021.27 1021.43 1021.58 1021.76 1022.02 1022.38 1022.84 1023.39 1023.98 1024.60 1025.19 1025.75 1026.24 1026.67 1027.03 1027.32 1027.56 1027.73 1027.85 1027.91
1012.81 1013.13 1013.42 1013.72 1014.05 1014.40 1014.74 1015.02 1015.24 1015.37 1015.44 1015.49 1015.57 1015.74 1016.04 1016.50 1017.11 1017.83 1018.59 1019.34 1020.01 1020.56 1020.96 1021.24 1021.43 1021.58 1021.74 1021.96 1022.27 1022.67 1023.17 1023.73 1024.33 1024.94 1025.53 1026.07 1026.56 1026.98 1027.34 1027.63 1027.86 1028.03 1028.14
Thickness
5777 5777 5772 5771 5771 5771 5771 5771 5770 5770 5770 5770 5770 5769 5769 5768 5768 5767 5767 5767 5767 5767 5767 5766 5766 5766 5766 5766 5765 5765 5765 5764 5764 5764 5763 5763 5763 5763 5762 5762 5763 5764 5761
5778 5776 5770 5770 5769 5769 5769 5768 5768 5768 5768 5768 5767 5767 5766 5766 5765 5765 5765 5765 5764 5764 5764 5763 5763 5763 5763 5763 5762 5762 5762 5762 5761 5761 5761 5761 5761 5760 5760 5760 5760 5761 5759
5777 5774 5771 5768 5767 5767 5766 5766 5766 5766 5766 5765 5764 5764 5764 5763 5763 5762 5762 5762 5762 5761 5761 5761 5760 5760 5760 5760 5759 5759 5759 5758 5758 5759 5760 5762 5760 5758 5758 5757 5757 5757 5757
5775 5773 5770 5766 5765 5765 5764 5764 5764 5764 5763 5762 5762 5762 5761 5760 5760 5760 5759 5759 5758 5758 5758 5758 5757 5757 5757 5757 5756 5756 5756 5756 5756 5757 5760 5760 5759 5756 5755 5755 5754 5754 5754
5773 5771 5768 5764 5763 5763 5762 5762 5762 5761 5761 5760 5759 5759 5758 5758 5757 5756 5756 5755 5755 5755 5755 5754 5754 5754 5754 5753 5753 5753 5753 5753 5753 5755 5756 5756 5755 5752 5752 5752 5752 5751 5751
5771 5769 5765 5762 5761 5760 5760 5759 5759 5758 5758 5757 5757 5756 5755 5754 5753 5753 5752 5752 5752 5751 5751 5751 5751 5750 5750 5750 5750 5749 5749 5750 5752 5753 5753 5753 5752 5749 5749 5749 5749 5748 5747
5769 5766 5764 5759 5759 5758 5758 5757 5757 5756 5755 5755 5754 5753 5752 5751 5750 5750 5749 5749 5748 5748 5748 5747 5747 5747 5746 5746 5746 5746 5746 5748 5750 5750 5749 5749 5748 5746 5746 5746 5745 5745 5744
5766 5764 5762 5757 5757 5756 5755 5755 5754 5753 5752 5752 5751 5750 5749 5748 5747 5747 5746 5745 5745 5745 5744 5744 5743 5743 5743 5743 5743 5743 5743 5745 5747 5748 5746 5745 5743 5743 5743 5742 5742 5741 5741
5763 5762 5761 5759 5757 5755 5753 5752 5751 5750 5750 5749 5748 5747 5746 5745 5744 5743 5743 5742 5742 5742 5741 5740 5740 5739 5739 5739 5739 5739 5739 5741 5744 5744 5744 5741 5739 5739 5739 5738 5738 5738 5737
5760 5759 5758 5757 5757 5756 5753 5750 5749 5747 5747 5746 5746 5745 5744 5743 5742 5741 5740 5739 5739 5738 5738 5737 5737 5736 5736 5735 5735 5735 5736 5738 5741 5740 5739 5737 5735 5735 5735 5734 5734 5733 5733
5756 5756 5756 5755 5754 5753 5751 5749 5747 5745 5744 5744 5743 5742 5742 5743 5743 5740 5738 5736 5735 5735 5734 5734 5733 5733 5733 5733 5732 5732 5734 5737 5737 5736 5735 5732 5732 5731 5731 5730 5729 5729 5728
5751 5752 5753 5752 5751 5750 5748 5747 5747 5745 5743 5744 5743 5742 5742 5740 5739 5737 5733 5732 5732 5731 5731 5730 5730 5731 5732 5733 5732 5731 5734 5734 5734 5733 5730 5728 5728 5728 5727 5727 5726 5725 5724
5750 5749 5750 5750 5749 5748 5746 5745 5744 5742 5741 5741 5740 5739 5738 5737 5736 5735 5734 5732 5731 5731 5731 5729 5730 5731 5731 5730 5730 5730 5730 5730 5730 5729 5726 5724 5724 5724 5724 5723 5722 5721 5720
5746 5746 5746 5746 5746 5745 5743 5742 5740 5739 5739 5738 5737 5737 5735 5734 5734 5733 5732 5731 5730 5729 5728 5728 5727 5727 5727 5728 5727 5727 5727 5726 5725 5723 5720 5719 5719 5719 5719 5718 5717 5717 5716
5743 5742 5743 5743 5742 5741 5739 5737 5737 5736 5736 5735 5732 5733 5732 5731 5731 5730 5729 5727 5726 5725 5725 5724 5725 5724 5723 5723 5722 5723 5722 5721 5720 5719 5716 5714 5715 5714 5714 5714 5713 5713 5712
5742 5741 5740 5739 5738 5737 5736 5735 5734 5732 5730 5730 5729 5728 5728 5727 5726 5725 5725 5723 5722 5721 5720 5720 5720 5719 5718 5718 5717 5717 5717 5716 5715 5714 5712 5711 5710 5709 5709 5708 5708 5708 5708
5740 5739 5737 5735 5735 5733 5732 5731 5730 5728 5727 5726 5724 5725 5724 5723 5722 5721 5720 5719 5718 5717 5717 5716 5716 5714 5714 5713 5712 5712 5711 5710 5710 5710 5708 5707 5706 5704 5703 5703 5703 5703 5703
5738 5736 5734 5732 5731 5729 5727 5726 5725 5724 5722 5721 5720 5720 5720 5719 5718 5716 5715 5714 5713 5712 5712 5711 5711 5710 5709 5708 5708 5707 5706 5705 5705 5705 5704 5703 5702 5701 5699 5698 5698 5698 5698
5735 5733 5731 5729 5727 5725 5723 5721 5720 5719 5717 5716 5715 5715 5714 5714 5714 5713 5711 5710 5709 5708 5708 5707 5706 5706 5704 5703 5703 5702 5702 5701 5700 5700 5700 5699 5698 5697 5696 5694 5693 5692 5693
5731 5730 5728 5725 5723 5720 5718 5717 5715 5713 5713 5711 5710 5709 5709 5708 5708 5708 5707 5706 5705 5704 5703 5703 5701 5700 5699 5699 5699 5697 5697 5696 5695 5695 5695 5693 5693 5692 5691 5691 5690 5689 5688
5727 5725 5724 5721 5719 5716 5713 5711 5709 5707 5707 5707 5706 5705 5704 5704 5703 5703 5703 5702 5700 5699 5698 5698 5697 5696 5695 5696 5694 5692 5692 5692 5691 5689 5689 5688 5688 5687 5686 5686 5686 5686 5686
5722 5720 5720 5717 5715 5713 5710 5708 5706 5704 5703 5702 5700 5699 5699 5699 5698 5698 5698 5697 5695 5694 5693 5693 5692 5691 5691 5692 5691 5688 5686 5685 5685 5685 5684 5683 5683 5682 5682 5682 5682 5681 5681
5718 5716 5715 5713 5711 5709 5707 5704 5702 5699 5698 5697 5696 5695 5694 5694 5694 5693 5693 5693 5691 5691 5689 5688 5688 5686 5685 5687 5687 5685 5682 5680 5679 5680 5679 5679 5677 5677 5676 5676 5676 5676 5676
5714 5713 5712 5710 5708 5706 5703 5701 5698 5695 5693 5693 5693 5692 5690 5689 5689 5688 5688 5688 5688 5687 5685 5685 5685 5684 5682 5681 5682 5682 5684 5681 5677 5674 5674 5675 5673 5672 5672 5672 5671 5670 5670
5711 5709 5708 5706 5704 5702 5700 5697 5695 5693 5692 5690 5689 5688 5687 5686 5685 5684 5684 5684 5683 5682 5682 5680 5680 5680 5679 5678 5677 5677 5677 5676 5678 5674 5669 5669 5669 5669 5668 5667 5666 5665 5665
5707 5704 5703 5701 5699 5697 5696 5694 5692 5690 5688 5685 5684 5683 5683 5683 5681 5680 5680 5680 5679 5678 5678 5676 5676 5675 5675 5674 5674 5674 5673 5672 5672 5670 5668 5666 5664 5664 5664 5663 5662 5661 5659